Theta_e
310 310 310 309 307 304 306 307 306 305 304 305 305 303 302 300 302 305 305 307 309 308 308 307 308 310 310 310 306 308 305 305 303 306 307 309 312 314 313 311 309 309 307 307 307 309 311 307 307 304 303 308 309 309
309 308 308 309 308 305 306 306 304 304 305 305 304 304 305 303 302 302 303 303 304 308 307 308 310 310 310 309 309 308 306 306 306 303 305 309 313 311 310 312 307 309 308 308 308 309 308 308 306 308 311 309 309 309
306 306 308 309 307 305 306 305 304 304 304 304 303 304 304 304 302 301 302 303 305 307 307 307 306 306 307 308 309 309 309 308 309 310 310 309 313 308 311 310 310 308 307 307 306 307 307 310 308 309 310 309 309 308
305 307 309 309 307 306 306 305 304 303 303 303 304 304 304 303 303 303 303 303 305 306 307 307 306 307 308 308 308 309 310 309 307 307 310 308 309 310 308 308 306 306 305 305 303 304 306 309 309 309 309 309 308 308
306 307 309 308 307 307 305 304 304 303 303 304 303 304 303 303 301 302 303 303 303 304 306 307 306 306 306 308 308 309 310 307 306 308 307 310 312 306 304 303 304 305 305 304 305 306 307 307 310 309 309 308 307 307
306 307 309 307 307 306 305 305 304 302 302 301 303 303 304 303 302 303 303 302 303 303 305 306 306 308 309 308 307 307 308 306 305 309 309 311 311 309 301 302 306 309 310 310 308 309 308 309 310 308 308 307 307 306
306 307 308 307 307 306 305 305 304 301 299 300 303 303 303 303 301 303 302 305 305 304 305 305 305 307 307 307 306 305 305 305 305 308 308 309 308 310 298 305 308 310 310 310 309 308 308 309 308 308 308 306 305 303
306 308 307 307 306 305 305 303 302 301 299 302 303 302 303 302 301 303 303 304 304 304 304 304 306 305 305 305 306 306 306 305 308 309 308 307 307 304 303 306 310 310 309 309 308 308 309 308 307 307 306 305 303 302
306 308 307 307 306 305 304 303 302 300 300 302 303 302 302 301 301 301 301 303 303 303 302 301 306 301 305 306 307 307 307 302 306 304 305 305 302 304 307 309 309 309 310 308 307 307 308 307 306 306 305 303 302 301
308 307 305 305 305 304 302 303 303 300 300 302 302 301 301 301 301 302 302 302 303 304 304 302 305 303 305 305 305 304 305 300 302 304 306 300 304 308 311 310 310 308 308 307 306 305 306 306 306 305 304 303 302 301
308 306 305 305 304 303 303 303 302 301 301 302 301 300 301 302 301 302 303 303 302 300 300 303 305 304 305 306 306 306 302 303 303 303 305 302 301 302 310 311 311 308 308 308 308 308 307 306 305 304 303 302 301 301
307 306 305 305 304 303 303 302 301 301 301 300 300 301 301 300 301 302 301 301 301 303 303 303 304 306 306 308 306 304 304 297 303 300 299 303 301 308 308 307 307 308 308 308 307 306 305 305 304 303 302 301 301 300
306 305 304 304 304 303 302 301 300 300 299 300 300 300 299 299 300 300 302 303 303 303 305 305 303 307 307 307 305 302 300 300 300 297 302 300 303 306 307 308 308 307 307 307 306 305 305 304 303 302 302 301 300 300
305 304 304 304 303 303 302 300 300 300 299 299 299 299 299 299 299 297 299 300 303 305 306 306 304 304 305 304 303 305 301 298 298 300 302 300 305 306 306 307 307 306 306 305 304 304 304 303 303 302 301 300 300 300
303 303 303 303 302 302 302 301 300 299 299 299 298 298 298 298 299 300 301 302 305 305 305 305 304 305 302 305 303 300 299 298 300 303 301 306 306 306 306 306 306 305 305 304 304 304 303 303 302 301 301 300 299 297
302 303 302 301 301 302 301 300 300 299 299 299 298 298 298 297 297 300 301 302 303 304 305 305 304 305 305 304 302 301 299 301 303 300 305 306 305 306 306 306 305 305 304 304 304 303 303 302 301 301 299 298 297 297
302 302 301 301 301 301 301 300 300 299 298 298 298 299 300 300 300 300 301 303 304 304 303 304 305 305 299 300 296 297 300 301 303 305 306 306 306 305 305 305 304 304 304 303 303 302 301 301 300 299 297 297 297 297
301 301 301 301 301 301 301 299 299 299 297 298 297 298 299 302 303 303 303 302 303 304 305 305 304 302 300 297 299 300 302 306 306 306 306 306 305 305 305 304 304 303 303 302 301 301 300 299 298 297 297 297 297 297
301 301 301 301 300 301 300 300 300 298 298 297 299 299 299 301 301 300 301 303 303 304 305 306 305 303 300 299 301 305 307 308 308 306 305 305 305 304 305 304 304 303 302 301 300 300 299 298 297 297 297 297 297 296
301 301 301 300 299 300 298 298 299 298 298 298 299 299 299 300 300 300 301 302 303 303 304 303 304 304 302 306 307 306 306 309 309 307 303 303 303 304 304 304 303 302 301 300 300 299 297 296 297 297 297 297 296 296
302 301 300 300 300 299 298 297 299 299 298 299 299 300 300 300 300 300 301 302 303 304 302 305 305 306 306 305 305 307 308 307 306 306 305 302 303 304 304 303 303 302 300 300 298 297 296 297 297 297 297 296 295 294
300 300 302 300 300 298 298 297 297 297 298 298 299 300 298 298 299 301 302 301 302 304 303 304 304 305 305 305 306 306 307 306 304 304 303 303 302 303 303 302 302 300 300 299 298 297 297 297 297 297 296 295 294 292
302 301 299 299 297 297 296 298 298 298 298 299 300 298 297 297 300 300 300 301 301 302 302 303 304 304 304 304 304 305 305 304 303 303 302 302 302 302 302 301 300 300 299 298 297 297 297 297 297 296 295 294 292 292
300 299 298 298 297 296 297 298 298 298 300 300 297 296 299 298 299 298 298 299 302 302 302 302 302 303 304 303 304 304 304 303 303 302 301 301 301 301 301 300 300 299 299 297 297 297 297 297 296 295 294 293 292 292
299 297 298 298 297 297 298 298 298 300 300 298 299 299 299 299 299 298 299 299 302 302 302 303 303 303 303 303 303 303 303 302 302 301 300 301 301 300 300 300 299 299 298 297 298 298 297 297 296 295 293 292 292 291
297 295 297 296 295 294 297 297 298 298 299 300 300 298 298 299 300 301 298 301 302 302 302 303 303 303 303 304 304 302 302 301 301 301 300 300 301 301 300 299 298 298 297 297 298 297 297 296 295 294 293 292 291 290
296 296 297 297 297 297 297 297 297 298 299 298 299 298 299 300 299 297 302 302 302 302 302 303 303 304 304 303 303 302 302 301 301 301 301 301 301 301 300 300 299 298 297 298 297 297 297 296 295 294 292 291 291 290
296 297 298 297 297 298 297 298 299 299 298 297 298 297 298 299 300 303 303 303 303 303 303 303 303 303 304 304 303 301 301 300 299 300 300 299 300 300 299 299 299 298 298 298 297 297 297 296 295 294 292 291 290 289
295 297 298 295 295 297 296 298 298 301 301 298 299 298 298 302 303 303 304 304 302 302 302 302 301 302 302 302 301 301 301 301 300 299 299 299 299 299 299 298 298 297 298 297 297 297 296 295 294 293 292 291 290 289
295 298 297 296 294 296 297 298 299 301 301 300 301 301 300 301 302 301 301 301 301 301 302 302 302 300 300 300 300 300 300 300 300 301 301 300 300 299 298 298 298 298 298 297 297 296 295 294 293 292 291 290 289 288
298 297 295 294 291 295 297 297 298 297 298 298 298 298 298 297 297 298 299 300 300 300 299 300 300 300 300 300 300 300 299 299 300 299 300 300 299 298 297 297 298 298 297 297 297 296 295 294 293 292 291 289 288 288
297 295 294 293 294 295 296 297 297 297 297 297 296 294 294 295 295 297 299 300 300 299 299 299 299 300 300 301 301 301 301 300 300 299 300 300 299 298 297 297 298 297 297 297 297 296 295 294 293 292 290 289 288 288
296 296 296 295 295 295 296 297 295 294 295 295 295 295 295 296 295 297 299 300 300 299 299 299 299 299 300 300 300 300 301 301 300 300 299 299 299 298 298 298 298 297 297 297 296 295 294 293 292 291 290 288 288 288
Wind_Speed
37 33 31 35 36 33 33 28 25 27 24 20 19 17 16 17 17 18 18 16 13 6 16 20 18 13 14 6 1 7 6 2 2 1 3 4 3 3 1 3 5 6 5 3 2 1 7 8 4 6 5 3 7 9
36 34 33 36 39 35 35 30 27 27 23 21 19 17 15 16 16 15 18 12 15 18 14 14 16 17 19 15 19 7 5 5 6 1 2 1 2 0 2 2 2 1 6 4 8 6 6 17 5 8 5 7 7 8
36 34 39 39 40 36 37 29 29 27 24 22 21 19 16 15 14 16 17 13 12 15 24 28 29 20 27 27 24 13 12 5 2 4 3 3 3 4 3 5 2 2 5 3 3 4 9 13 20 9 9 8 7 5
38 40 37 39 39 40 35 29 28 27 24 24 21 19 17 17 16 16 15 11 11 7 5 7 13 20 18 23 25 32 34 27 18 16 4 3 2 4 3 2 4 5 6 3 5 8 9 14 19 15 11 9 8 9
42 38 39 40 36 36 33 32 30 26 25 23 22 20 17 15 16 16 16 15 15 13 4 8 18 26 25 22 20 24 30 28 20 5 3 3 3 2 1 1 4 9 7 5 6 10 6 4 8 18 18 14 10 14
45 41 43 37 36 36 35 35 30 26 24 24 23 20 17 15 15 12 5 15 22 20 6 3 6 13 10 12 13 21 27 23 15 6 6 6 5 3 3 3 7 16 19 21 8 8 10 4 6 17 17 14 14 13
47 42 44 39 38 36 37 34 31 28 24 24 23 20 18 16 16 14 5 3 1 9 4 6 6 4 13 12 10 17 19 16 14 8 6 4 4 4 2 5 5 9 15 17 17 11 9 12 7 15 13 15 15 14
51 45 44 42 40 39 36 34 31 27 25 25 23 19 16 13 11 19 21 10 2 3 4 3 4 5 9 6 3 11 9 16 9 7 3 4 4 1 4 9 12 17 10 12 17 17 8 13 14 18 16 19 19 18
50 47 43 44 40 40 37 36 32 28 27 26 21 19 16 15 13 18 15 14 15 12 4 4 2 4 8 4 7 7 9 2 5 4 4 6 3 5 7 15 15 16 15 13 19 11 10 15 20 20 20 20 19 19
49 47 46 44 41 39 38 37 34 32 30 26 24 12 8 9 10 7 6 5 8 12 13 5 6 3 7 8 5 3 5 3 2 5 9 3 5 27 27 19 15 12 18 21 21 19 21 22 23 24 22 19 17 17
51 50 47 45 43 42 40 39 36 35 32 29 12 8 11 14 12 7 6 8 8 4 8 12 23 5 7 4 3 7 3 2 2 4 5 3 4 7 29 38 37 18 19 20 16 12 16 17 25 25 22 19 17 15
53 51 49 45 46 43 42 39 40 43 36 28 16 20 15 7 6 5 4 4 5 6 6 7 13 20 7 6 2 5 3 2 6 6 3 4 5 14 13 14 16 25 20 23 15 14 18 19 22 22 21 19 16 14
53 49 46 48 45 45 44 42 43 44 35 27 11 9 8 7 6 6 7 4 4 6 12 15 6 12 7 5 3 2 3 5 6 2 5 5 6 10 14 14 22 24 23 21 17 21 22 22 21 21 20 17 15 12
50 48 46 46 47 47 47 46 48 44 39 8 9 7 6 6 7 5 6 5 12 8 22 26 10 6 6 4 2 3 3 3 1 3 6 4 16 16 20 23 28 27 24 23 25 25 25 24 22 20 18 15 12 9
49 49 47 49 48 48 48 50 48 45 18 8 8 8 9 10 10 13 22 6 12 6 15 12 8 4 2 3 4 1 1 5 6 5 4 13 15 27 28 29 28 29 28 27 28 29 26 25 24 21 16 13 10 7
49 45 50 52 48 48 48 49 50 35 12 10 8 4 6 9 4 9 13 21 18 6 16 6 3 3 4 3 3 8 6 6 4 4 10 8 22 31 32 31 29 31 30 29 29 27 26 25 22 19 16 11 9 7
50 30 53 51 48 49 50 46 28 12 12 8 5 17 18 10 17 23 23 20 14 15 4 4 6 8 2 3 3 5 5 4 3 9 9 13 28 34 33 32 32 33 32 30 28 26 24 22 20 17 15 13 9 8
38 40 51 49 50 49 44 21 12 14 8 8 9 14 25 11 14 14 16 20 13 16 18 6 5 3 5 6 4 5 14 18 14 5 7 14 26 31 33 35 34 33 32 30 29 27 25 22 18 15 14 12 11 8
44 44 49 51 55 31 9 16 11 7 6 10 14 26 26 23 21 22 23 8 9 13 16 11 4 4 5 6 6 15 29 32 14 7 10 17 25 31 34 34 33 33 32 31 29 26 22 17 15 16 14 12 9 7
40 42 47 49 54 11 7 6 20 7 8 11 17 26 26 28 30 28 26 22 20 13 5 4 5 10 7 18 22 20 18 28 36 24 19 23 27 31 34 36 36 34 33 31 27 24 22 20 18 16 14 11 8 6
39 40 43 51 41 9 7 11 10 10 10 7 15 22 11 22 26 27 25 22 20 8 3 10 21 27 42 33 26 27 27 26 36 35 35 34 34 34 37 36 35 36 36 33 29 25 23 22 20 17 14 11 8 5
30 43 43 42 15 8 5 10 11 14 11 9 14 13 5 5 10 20 20 19 12 14 14 20 22 24 32 28 28 26 25 28 26 25 28 36 41 40 40 41 41 39 36 32 28 26 24 21 19 16 13 10 8 6
45 36 24 9 6 5 6 21 6 8 5 9 12 4 2 4 11 18 8 13 19 23 26 28 28 24 35 36 29 22 22 23 25 26 32 38 40 39 41 41 40 38 34 29 26 26 25 22 19 16 12 10 8 8
28 15 7 5 6 4 11 5 8 8 7 6 5 4 4 6 12 6 4 10 25 27 32 35 34 36 30 29 30 25 20 24 27 28 34 39 41 40 40 40 37 33 29 29 29 27 25 23 19 15 13 11 10 8
8 7 10 5 7 6 4 6 3 3 4 5 6 4 4 8 3 4 4 7 30 34 32 30 36 36 33 31 30 26 24 28 32 34 36 40 41 40 39 37 34 31 29 31 31 29 26 22 18 16 13 12 10 10
4 5 6 5 4 5 6 5 7 7 5 5 5 7 8 4 5 5 5 23 29 33 39 37 36 40 40 39 37 31 32 33 33 36 39 41 40 44 45 43 38 33 31 30 31 30 26 23 20 17 15 13 12 11
4 3 6 5 9 11 5 5 6 4 5 6 5 6 4 5 6 5 17 25 32 41 43 42 42 41 43 41 37 33 32 33 35 35 37 39 38 39 41 43 39 35 34 32 29 26 24 23 20 17 15 13 12 11
4 9 8 9 4 5 5 5 6 6 5 9 11 6 9 10 7 12 15 27 35 34 36 40 44 42 40 40 39 36 33 35 33 31 33 36 36 37 37 33 27 31 32 29 26 24 21 19 18 17 14 12 12 12
3 12 11 4 2 3 4 5 6 10 13 16 8 5 5 10 18 14 18 21 21 29 33 35 41 41 40 37 39 37 41 44 43 39 42 41 40 39 36 29 26 33 31 29 25 21 20 18 17 15 13 12 11 11
6 14 5 4 5 4 2 5 5 13 12 13 14 12 10 11 16 21 19 19 20 28 33 36 42 43 42 41 40 40 42 43 43 46 49 47 48 42 36 30 33 34 33 31 29 26 22 21 20 18 16 14 13 12
16 5 4 2 3 6 6 6 10 10 11 8 9 9 8 5 7 12 14 17 19 23 27 34 40 43 44 45 45 46 45 43 43 39 32 35 41 40 38 36 35 35 34 33 32 30 27 24 21 19 16 14 13 12
6 4 4 3 1 7 11 7 4 3 4 5 4 5 6 4 3 5 10 16 22 27 31 36 43 46 45 42 40 42 42 45 48 43 32 32 36 35 36 37 36 35 34 33 30 26 23 22 21 19 17 16 14 13
5 5 6 5 3 4 6 7 4 3 2 4 5 8 8 7 3 7 11 20 25 29 32 34 38 41 42 43 43 42 39 39 41 36 30 26 27 33 37 37 35 34 32 30 28 26 24 22 21 19 17 16 15 14
Wind_Direction
226 228 243 241 228 227 231 231 237 247 236 233 230 225 221 222 221 229 242 230 222 240 272 271 266 268 288 313 235 319 336 297 47 179 171 229 194 239 216 170 176 171 149 196 91 124 285 169 112 169 224 128 148 151
225 232 245 244 227 223 230 227 232 238 229 227 228 225 220 220 221 226 246 240 230 237 249 267 277 261 258 272 266 277 280 307 235 123 244 301 256 94 161 241 86 228 184 181 179 214 240 198 214 215 198 165 167 161
235 241 241 234 230 220 225 222 225 232 221 222 226 222 221 225 225 224 243 246 247 255 276 264 265 279 267 261 261 253 279 256 257 355 288 259 250 128 184 242 199 239 170 197 73 257 237 238 225 224 206 193 180 183
237 233 228 222 216 220 224 216 222 223 217 217 218 225 224 222 223 227 231 239 243 255 266 283 277 273 278 278 266 245 250 259 286 301 270 252 205 181 218 241 178 198 136 191 265 282 279 248 229 217 197 196 186 168
228 228 219 215 220 223 212 210 214 216 217 213 218 220 222 221 219 229 237 243 243 232 278 285 280 275 284 282 273 240 240 243 267 263 221 244 245 146 280 37 240 188 185 171 229 217 215 239 232 213 209 193 191 176
223 228 215 212 214 210 211 206 204 213 214 216 213 215 214 210 211 214 269 252 238 240 264 286 281 272 294 294 262 239 235 245 232 228 225 236 237 210 159 228 255 216 224 238 246 244 220 233 207 200 198 182 177 181
218 224 210 212 209 209 208 209 201 208 210 208 208 210 206 214 210 184 205 195 206 202 248 285 275 268 236 234 253 249 239 229 223 226 232 214 213 209 132 233 223 231 243 249 245 196 155 175 184 181 186 170 165 158
217 216 208 206 204 206 201 192 197 202 198 199 202 202 203 212 212 218 222 208 263 280 258 262 264 302 197 168 152 212 210 209 227 236 205 189 168 170 258 238 236 236 231 231 208 205 235 187 166 166 173 167 164 162
215 205 203 200 200 202 200 193 194 196 190 196 194 186 187 200 212 234 239 239 246 232 233 220 241 254 183 150 185 204 204 169 224 216 220 155 195 223 229 228 233 229 222 202 183 193 186 179 166 166 171 169 167 164
206 200 198 199 199 195 192 191 190 190 186 179 172 162 176 196 191 164 197 217 216 214 220 213 197 263 199 177 168 242 203 220 187 228 151 168 250 244 246 252 247 231 211 189 160 158 167 167 168 171 174 174 173 172
201 194 194 195 193 193 189 185 184 179 174 161 160 164 155 153 157 184 205 203 203 228 217 203 204 186 222 180 177 219 215 184 192 228 159 236 264 244 248 246 243 215 206 206 217 225 210 193 171 167 168 171 172 178
194 192 193 194 190 193 186 182 181 174 168 171 157 136 135 169 190 195 196 206 200 221 205 201 192 185 184 201 171 223 204 72 239 139 113 249 243 224 225 223 213 199 193 194 198 189 173 172 169 167 166 167 173 177
190 187 191 192 193 188 178 179 177 175 162 144 143 146 164 183 203 202 192 186 198 207 195 184 151 159 146 166 237 244 181 220 126 85 228 235 241 224 200 178 169 171 175 180 173 164 159 161 165 169 167 172 176 176
186 188 188 189 186 181 175 176 175 171 156 145 159 160 202 191 216 188 192 185 210 219 194 173 152 165 141 139 170 255 245 95 264 232 233 243 223 188 174 171 167 165 171 171 162 161 162 162 164 169 172 174 179 183
181 184 185 184 179 176 175 175 172 169 159 169 168 200 198 204 215 209 209 223 216 243 189 162 120 147 79 145 193 37 352 245 217 231 233 237 205 177 170 171 170 166 166 163 162 163 164 166 166 165 170 174 181 188
184 181 183 174 174 175 175 172 168 168 183 177 202 171 170 166 239 206 214 230 233 230 175 164 105 121 202 197 161 224 163 229 235 223 236 212 179 177 174 173 172 168 165 162 164 166 166 169 171 169 167 174 178 180
176 171 175 171 173 175 174 161 167 172 188 196 188 193 185 187 201 215 219 233 229 175 158 152 189 206 93 160 233 192 211 240 262 298 261 206 182 175 173 172 171 167 165 164 165 168 167 168 169 170 170 167 171 174
167 169 168 170 168 166 160 168 160 176 193 184 156 180 197 187 189 211 227 229 206 198 191 192 162 167 205 186 236 221 242 260 292 261 206 188 183 177 175 171 170 169 167 167 168 168 170 171 173 173 174 171 173 178
168 165 169 168 165 161 133 175 184 179 175 162 186 194 198 204 213 226 243 218 231 221 204 185 237 220 221 222 242 238 223 232 251 232 191 181 182 179 175 172 170 170 169 168 169 171 174 178 180 177 176 174 181 180
170 169 171 170 171 152 134 139 189 165 176 187 186 192 197 209 216 228 245 253 243 228 202 188 199 237 229 243 258 285 281 238 233 226 183 182 185 181 177 174 172 170 169 169 170 172 172 172 175 177 177 181 188 185
172 172 171 171 173 177 157 156 168 187 150 175 176 180 192 211 215 223 229 228 209 197 205 227 240 237 248 262 285 306 286 261 231 215 200 179 182 181 176 177 174 173 172 172 175 176 180 179 173 175 179 179 185 191
167 166 164 173 179 165 148 169 153 155 154 149 153 170 183 189 208 212 222 206 210 209 210 220 242 243 249 265 265 265 279 266 237 221 199 183 174 179 179 177 176 176 178 179 182 178 175 176 173 174 178 180 183 183
160 166 157 132 132 133 155 138 119 143 152 168 150 127 209 198 205 207 214 232 232 232 240 234 237 249 254 263 271 268 259 239 216 205 187 182 178 179 178 178 181 179 179 181 182 177 175 173 174 177 179 181 181 172
162 148 135 130 123 132 154 160 146 139 136 157 156 198 204 204 163 187 209 207 231 238 235 234 238 236 244 248 247 245 232 218 212 196 190 182 177 178 181 181 182 184 185 178 177 178 175 173 176 179 181 185 182 186
127 174 148 146 152 135 136 139 149 132 141 164 154 183 180 160 162 198 214 213 222 227 227 228 223 226 227 237 237 229 218 213 208 194 188 189 182 177 179 182 184 188 187 180 178 177 175 176 179 181 183 184 188 193
115 188 157 146 164 130 159 140 168 158 138 151 190 150 152 161 176 231 217 227 218 218 218 217 219 223 228 232 234 219 213 208 206 199 190 193 189 182 178 180 183 187 191 191 180 178 176 179 182 182 182 184 192 193
132 167 179 172 142 135 104 104 123 128 160 176 160 159 160 179 211 233 228 235 229 231 228 225 219 218 221 221 224 226 216 206 207 201 194 190 194 192 186 183 187 187 184 186 187 183 181 180 182 184 183 185 189 191
142 164 159 153 123 143 118 123 147 179 180 158 138 173 184 193 222 225 227 230 230 232 231 226 220 217 219 221 221 212 199 195 194 194 189 186 190 192 193 194 195 185 179 179 183 182 183 183 185 184 185 187 185 187
102 139 120 94 104 150 164 165 198 196 164 165 169 169 217 219 229 230 225 231 231 220 217 212 207 209 212 212 213 205 199 192 185 180 178 179 184 190 195 196 190 183 179 176 178 181 179 181 183 183 184 184 181 182
160 167 126 144 131 180 206 211 193 172 178 184 193 200 218 228 233 235 241 233 219 211 213 210 203 200 199 199 193 193 197 197 194 184 177 186 187 182 185 184 181 180 178 176 173 172 174 176 179 183 186 185 184 182
150 142 81 75 170 151 145 163 161 163 166 174 183 204 213 230 244 249 241 232 219 209 201 198 197 202 201 198 197 191 189 195 194 191 194 192 180 181 180 177 179 179 179 179 180 180 180 183 186 186 186 185 181 179
134 130 131 115 89 141 145 149 145 166 160 169 188 173 174 169 251 233 226 213 204 203 205 203 199 200 204 206 202 200 199 192 192 194 194 186 184 184 181 178 180 181 181 183 184 182 182 184 184 186 186 183 180 174
103 114 113 122 136 164 162 137 132 118 150 185 205 204 206 170 210 223 223 208 207 209 205 204 204 202 198 200 197 193 194 194 189 186 186 188 191 186 181 180 182 183 184 182 180 180 181 184 186 185 184 182 179 176